Skip Page Navigation
NASA JPL Caltech
NASA Logo - Jet Propulsion Laboratory + View the NASA Portal
+ Center for Near-Earth Object Studies
JPL Home Earth Solar System Stars & Galaxies Technology
JPL Solar System Dynamics
BODIES ORBITS EPHEMERIDES TOOLS PHYSICAL DATA DISCOVERY FAQ SITE MAP
JPL Small-Body Database Browser
Search: [ help ]  
105346 (2000 QN96)
Classification: Main-belt Asteroid          SPK-ID: 2105346
Ephemeris | Orbit Diagram | Orbital Elements | Mission Design | Physical Parameters | Discovery Circumstances | Close-Approach Data ]

[ show orbit diagram ]
Orbital Elements at Epoch 2459200.5 (2020-Dec-17.0) TDB
Reference: JPL 22 (heliocentric ecliptic J2000)
 Element Value Uncertainty (1-sigma)   Units 
e .1922262911396379 4.7669e-08  
a 3.084845240646603 2.6218e-08 au
q 2.491856881297343 1.5125e-07 au
i 5.825262110434347 5.9958e-06 deg
node 22.76666764432802 3.9998e-05 deg
peri 324.6651908266275 4.2627e-05 deg
M 264.4409578044773 1.9735e-05 deg
tp 2459725.812561889570
(2022-May-26.31256189)
0.00011346 TDB
period 1979.012325105807
5.42
2.5229e-05
6.907e-08
d
yr
n .1819089226646189 2.319e-09 deg/d
Q 3.677833599995863 3.1257e-08 au
  Orbit Determination Parameters
   # obs. used (total)      723  
   data-arc span      7227 days (19.79 yr)  
   first obs. used      2000-08-28  
   last obs. used      2020-06-11  
   planetary ephem.      DE441  
   SB-pert. ephem.      SB441-N16  
   condition code      0  
   norm. resid. RMS      .53649  
   source      ORB  
   producer      Otto Matic  
   solution date      2021-Apr-13 15:56:09  

Additional Information
 Earth MOID = 1.48656 au 
 Jupiter MOID = 1.76215 au 
 T_jup = 3.190 
[ show covariance matrix ]

Ephemeris | Orbit Diagram | Orbital Elements | Mission Design | Physical Parameters | Discovery Circumstances | Close-Approach Data ]

Physical Parameter Table
Parameter Symbol Value Units Sigma Reference Notes
absolute magnitude H 14.67   n/a E2021B55  
diameter diameter 7.892 km 0.891 urn:nasa:pds:neowise_diameters_albedos::2.0[mainbelt] (http://adsabs.harvard.edu/abs/2011ApJ...741...68M)  
geometric albedo albedo 0.037   0.008 urn:nasa:pds:neowise_diameters_albedos::2.0[mainbelt] (http://adsabs.harvard.edu/abs/2011ApJ...741...68M)  

105346 (2000 QN96)          Discovered 2000-Aug-28 by LINEAR at Socorro
Reference: 20051019/Numbers.arcLast Updated: 2005-10-26

[ show close-approach data ]
Ephemeris | Orbit Diagram | Orbital Elements | Mission Design | Physical Parameters | Discovery Circumstances | Close-Approach Data ]
ABOUT SSD CREDITS/AWARDS PRIVACY/COPYRIGHT GLOSSARY LINKS
FirstGov 2021-May-17 20:58 UT
(server date/time)  
NASA Home Page
Site Manager:   Ryan S. Park
Webmaster  Alan B. Chamberlin